Location: ?????????
(44.2517°N, 135.2292°E)
Time: 03:35:13
(UTC+00:00)

Cosmos 1666 Rocket - Pass Details

Date: 19 May 2025
Orbit: 599 x 625 km, 82.5° (Epoch: 14 June)

Event Time Altitude Azimuth Distance (km) Brightness Sun altitude
Rises 15:51:09 0° 344° (NNW) 2,880 7.9 -24.6°
Reaches altitude 10° 15:53:28 10° 336° (NNW) 1,975 6.8 -24.5°
Enters shadow 15:56:57 37° 288° (WNW) 964 4.5 -24.3°
